COSMOS 2491 DEB, 57561

Orbit data source: Space-Track

COSMOS 2491 DEB, 57561 is space debris in LEO originally from a launch on Wed, 25 Dec 2013 UTC launched from the Plesetsk Missile And Space Complex (PKMTR). Debris objects in space refer to the collection of defunct objects orbiting the Earth. Examples of debris include non-operational satellites, rocket bodies, and fragments generated from explosions, collisions, or faulty payload assembly.

Loading next visibility...
Identifier
57561, 2013-076AY
Orbit
LEO
Country
Flag of CISCIS
Related business
Manufacturer
TsNIIKhM
Mission
Spacecraft
Bus & Motor
Unknown
Mass
Unknown
Launch date (UTC)
2013-12-25 (12 years ago)
Launch vehicle
Unknown
Launch site
Plesetsk Missile And Space Complex (PKMTR)
Object type
Payload
Rocket body
Debris
Shape & HBR
Unknown shape, 0.1 m
Radar Cross Section
Small (<0.1 m²)

Expand to show TLE details & history
Last TLE update: 1 week ago

TLE from 1 week ago
0 COSMOS 2491 DEB
1 57561U 13076AY  25303.16894527  .00003273  00000-0  15224-1 0  9996
2 57561  82.7497 264.4900 0143286  15.8780 344.6740 12.72594070115070
Epoch: 2025-10-30T04:03Z
TLE epoch observation values (Epoch: 2025-10-30T04:03:16.871Z)
Latitude
-0.00005°
Longitude
164.9381°
Altitude
1,267.144 km
Speed
7.272 km/s
True Right ascension
17h 37m 57s
True Declination
0° 00' 00"
Sunlit
Object was in daylight at epoch
Visualization orbit readout
Latitude
Unknown
Longitude
Unknown
Altitude
Unknown
Speed
Unknown
Apparent Right ascension
Unknown
Apparent Declination
Unknown
Sunlit
N/A
Visualization observer readout
Local Sidereal Time
05:19:24
Azimuth
Unknown
Elevation
Unknown
Doppler factor
Unknown
Orbital elements
Apogee altitude
1,479.691 km
Perigee altitude
1,257.689 km
Semi-major axis
7,746.827 km
Eccentricity
0.01433
Inclination
82.7497°
RAAN
264.49°
Arg. of periapsis
15.878°
True anomaly
344.2324°
Mean anomaly
344.674°
Eccentric anomaly
344.45397°
Mean motion
3.18315 °/min
Orbital period
113.1 mins
BSTAR
0.015224
Loading maneuver chart data...
Computing Atmospheric mass density...
Loading historical data...
Loading historical data...
Loading historical data...
Loading historical data...
Loading historical data...
Loading historical data...
Loading historical data...

Documentation

Showing up to 5 results
|